Temperature
17 17 18 17 17 17 17 18 18 18 18 18 18 18 18 18 18 18 18 18 18 18 18 18 18 18 18 18 18 18 18 18 18 18 18 18 18 18 18 18 18 17 18
17 17 17 17 17 17 17 17 17 17 18 18 18 17 17 17 17 17 17 18 17 17 18 18 18 18 18 18 18 18 18 18 18 18 18 17 18 18 18 18 18 17 18
17 17 17 17 17 17 17 17 17 17 17 17 17 17 17 17 17 17 17 17 17 17 17 17 17 17 17 17 17 17 17 17 18 18 17 17 17 18 18 17 17 18 18
17 17 17 17 17 17 17 17 17 17 17 17 17 17 17 17 17 17 17 17 17 17 17 17 17 17 17 17 17 17 17 17 17 17 17 17 17 17 17 17 17 17 17
17 16 16 17 17 17 17 17 17 17 17 17 17 17 17 17 17 17 17 17 17 17 17 17 17 17 17 17 17 17 17 17 17 17 17 17 17 17 17 17 17 17 17
17 16 16 17 17 17 17 17 17 17 17 17 17 17 17 17 16 17 17 17 17 17 17 17 17 17 17 17 17 17 17 17 16 16 16 16 17 17 17 17 17 17 17
17 16 16 17 16 16 16 16 16 16 16 16 16 16 16 16 16 16 17 17 17 17 17 17 17 17 17 17 17 17 17 17 16 16 16 16 17 17 17 17 17 17 17
16 16 16 17 16 16 16 16 16 16 16 16 16 16 16 16 16 16 16 16 16 16 16 16 16 16 16 16 17 17 17 16 16 16 16 16 17 17 17 17 17 17 17
16 16 16 16 16 16 16 16 16 16 16 16 16 16 16 16 16 16 16 16 16 16 16 16 16 16 16 16 16 16 16 16 16 16 16 16 16 16 16 17 17 17 17
16 16 16 16 16 16 16 16 16 16 16 16 16 16 16 16 16 16 16 16 16 16 16 16 16 16 16 16 16 16 16 16 16 16 16 16 16 16 16 16 16 16 17
17 17 16 16 16 16 16 16 16 16 16 16 16 16 16 15 15 15 16 16 16 16 16 16 16 16 16 16 16 16 16 16 15 15 15 16 16 16 16 16 16 16 16
17 17 17 16 16 16 16 16 16 16 16 16 16 15 15 15 15 15 16 16 16 16 16 16 16 16 15 15 15 16 15 15 15 15 15 16 16 16 16 16 16 16 16
17 17 17 16 16 16 16 16 16 16 16 16 16 15 15 15 15 15 15 15 15 15 15 15 15 15 15 15 15 15 15 15 15 15 15 15 15 16 16 16 16 16 16
17 17 17 16 16 16 16 16 16 16 16 16 15 15 15 15 15 15 15 15 15 15 15 15 15 15 15 15 15 15 15 15 15 15 15 15 15 15 15 15 15 15 15
17 17 17 16 16 16 16 16 16 16 16 16 15 15 15 15 15 15 15 15 15 15 15 15 15 15 15 15 15 15 15 15 15 15 15 15 15 15 15 15 15 15 15
18 17 17 16 16 16 16 16 16 16 16 16 15 15 15 15 15 15 15 15 15 15 15 15 15 15 15 15 15 15 15 15 15 14 14 15 15 15 15 15 15 15 15
18 18 17 16 16 16 16 16 16 16 16 16 15 15 15 15 15 15 15 15 15 15 15 15 15 15 15 15 15 15 15 15 15 14 14 14 14 14 15 15 15 15 14
18 18 17 16 16 16 16 16 16 16 16 16 16 15 16 16 15 15 15 15 15 15 15 15 15 15 15 15 15 14 14 14 14 14 14 14 14 14 14 14 14 14 14
18 18 17 17 16 16 16 16 16 16 16 15 15 15 15 15 15 15 15 15 15 15 15 15 15 15 15 14 14 14 14 14 14 14 14 14 14 14 14 14 14 14 14
18 18 17 17 16 16 16 16 16 16 16 15 15 15 15 15 15 15 15 15 15 15 15 15 15 15 14 14 14 14 14 14 14 14 14 14 14 14 14 14 14 14 14
18 17 17 17 16 16 16 16 16 16 15 15 15 15 15 15 15 15 15 15 15 15 15 15 15 14 14 14 14 14 14 14 14 14 14 14 14 14 14 14 14 13 13
18 17 17 17 16 16 16 16 16 15 15 15 15 15 15 15 15 15 15 15 15 15 15 14 14 14 14 14 15 15 15 14 14 14 14 14 14 14 14 14 13 13 13
18 17 17 17 17 16 16 16 16 15 15 15 15 15 15 15 15 15 15 15 15 15 15 14 14 14 14 14 14 15 15 16 14 13 13 13 13 13 13 13 13 13 13
18 18 17 17 17 16 16 16 16 15 15 15 15 15 15 15 15 15 15 15 14 15 14 14 14 14 14 14 14 15 15 15 15 14 14 13 13 13 13 13 13 13 13
18 18 17 17 16 16 16 16 15 15 15 15 15 15 15 15 15 15 15 15 15 14 14 14 14 14 14 14 14 14 14 15 15 15 14 14 13 13 13 13 13 13 13
18 17 17 17 16 16 16 16 15 15 15 15 15 15 15 15 15 15 15 14 14 14 14 14 14 14 14 14 14 14 14 15 15 15 15 14 14 13 13 13 13 13 13
Wind_Speed
2 3 5 3 4 5 6 6 7 8 8 8 8 8 8 9 9 9 9 8 8 8 8 7 8 8 8 7 7 7 7 8 8 7 7 7 7 6 5 3 1 4 6
3 4 6 4 5 5 6 6 7 7 8 8 8 8 9 9 9 9 9 9 8 8 7 7 8 8 8 8 8 7 8 8 7 6 5 7 7 7 6 5 5 5 5
4 5 6 5 6 6 6 7 7 7 8 8 9 9 9 9 9 9 9 8 8 8 7 7 7 7 7 8 8 8 8 8 7 4 2 5 8 8 7 7 6 6 6
5 5 6 7 6 6 7 7 7 8 8 9 9 9 9 9 9 9 8 8 7 7 7 7 7 7 7 7 8 8 8 8 5 0 3 6 7 9 8 8 7 7 6
5 6 7 6 7 7 7 8 8 8 8 8 9 9 9 9 9 8 8 8 8 7 7 7 7 7 7 7 8 8 8 7 3 2 6 6 7 9 8 8 8 7 7
6 6 8 7 7 7 8 8 8 8 8 8 8 9 9 8 8 8 8 8 7 7 7 7 8 8 7 8 8 9 8 5 2 6 6 6 7 8 8 8 8 8 7
6 7 8 8 7 7 7 7 8 9 9 9 9 9 9 9 8 8 8 8 7 7 7 8 8 9 8 9 9 9 7 4 6 6 6 7 8 8 8 8 8 8 8
6 6 8 8 7 7 7 8 8 8 9 9 9 9 9 9 9 9 9 8 8 7 7 8 8 9 9 9 10 9 7 4 6 6 7 8 10 9 9 8 8 8 8
5 5 6 7 8 8 8 8 8 9 9 8 9 9 9 9 10 9 9 9 8 8 8 8 9 9 10 11 11 10 8 5 6 6 7 9 10 9 9 9 8 8 8
5 5 5 6 6 7 8 9 8 8 8 8 9 8 8 8 9 8 8 9 8 8 8 9 10 11 11 11 11 9 4 2 7 8 8 10 10 10 9 9 9 8 8
4 4 5 5 6 6 7 8 8 8 8 8 9 7 5 6 7 8 10 9 9 9 10 10 11 11 10 11 10 6 3 6 8 8 10 11 11 11 11 11 10 9 9
4 4 4 4 5 6 5 6 5 6 6 5 6 6 5 6 6 7 10 9 9 9 10 10 10 8 5 8 7 3 6 8 8 9 12 12 11 11 12 12 11 11 10
4 4 3 4 4 5 4 4 4 4 5 5 6 6 5 6 6 6 6 7 7 7 7 8 6 7 7 7 6 7 8 8 8 10 13 13 13 13 12 12 12 12 11
4 4 3 4 4 4 4 4 3 4 4 5 5 6 5 4 4 5 4 5 5 6 6 6 6 7 7 8 8 8 8 8 8 9 13 15 14 14 13 13 13 13 13
4 4 4 3 3 4 4 3 3 4 4 5 4 4 5 4 4 4 5 5 5 6 5 5 6 7 7 8 8 9 9 10 10 9 11 15 16 15 15 15 14 14 14
5 4 5 4 3 4 4 3 3 4 4 4 4 3 5 5 4 4 4 4 5 5 6 6 7 6 7 7 8 9 9 9 10 9 9 11 15 16 16 15 15 14 14
5 5 5 4 4 3 3 3 3 3 4 4 4 4 5 4 4 4 4 4 5 6 6 6 6 6 6 6 7 8 8 9 9 9 9 8 10 14 16 16 16 16 16
5 5 5 5 4 4 4 3 3 3 3 3 4 3 4 4 4 4 4 4 5 5 5 4 5 5 6 6 6 6 6 7 8 9 9 9 9 9 12 15 16 16 16
6 6 6 6 5 5 4 3 3 3 3 3 3 3 3 4 4 4 3 3 4 4 3 4 4 4 5 5 5 5 6 6 6 7 8 9 9 9 9 10 12 15 16
6 6 6 6 5 5 4 4 3 3 3 3 3 3 3 2 3 4 3 3 3 3 3 3 5 4 4 4 5 5 5 5 5 6 6 7 8 9 9 9 9 11 14
8 7 7 7 7 6 5 4 3 3 2 3 2 3 3 3 3 4 3 3 3 3 4 4 4 5 4 3 3 4 5 5 6 5 5 5 7 8 9 9 9 8 9
9 9 9 8 8 7 4 4 3 3 2 2 2 3 3 3 3 3 4 3 3 3 4 4 4 3 3 1 0 1 2 3 4 5 4 5 6 7 8 9 9 9 9
10 10 8 9 9 8 6 4 4 3 3 3 3 2 2 2 3 3 4 3 3 3 4 3 3 2 1 1 1 2 1 1 3 4 5 5 6 6 7 8 9 10 10
11 9 9 9 9 8 7 5 5 4 3 3 3 3 3 3 3 3 3 3 3 3 3 3 2 1 1 1 1 1 2 1 0 2 3 5 6 6 6 6 8 9 10
10 9 9 9 9 8 7 6 5 4 3 3 3 4 4 4 3 4 4 4 3 3 3 2 2 1 1 0 0 1 1 1 1 1 3 3 4 5 6 6 6 8 9
9 10 10 10 9 9 8 7 6 5 5 5 4 4 3 3 3 4 4 4 4 3 3 3 2 2 1 1 0 0 0 0 1 1 2 3 3 4 5 5 6 6 7
Wind_Direction
90 80 85 89 106 114 110 105 102 102 103 104 104 102 98 95 93 94 94 93 94 93 91 89 89 88 86 84 86 84 82 82 82 80 80 77 72 74 73 72 97 100 79
97 92 94 88 102 111 107 103 103 106 106 104 102 101 97 94 93 92 90 90 89 89 90 90 89 88 85 82 82 81 80 80 82 83 91 96 78 68 67 60 41 64 76
97 94 104 91 92 99 105 103 101 101 102 104 104 101 97 95 93 89 85 84 86 88 87 85 84 84 85 85 83 79 78 77 78 95 144 95 87 72 63 59 61 69 70
91 88 85 90 94 95 94 97 101 101 100 99 101 100 95 93 91 88 86 83 82 85 85 81 79 81 86 89 86 82 79 76 74 113 89 68 71 70 61 58 58 64 63
90 87 87 88 91 95 95 97 97 96 98 97 97 98 94 90 88 87 85 81 80 83 84 79 76 79 85 89 89 84 79 75 82 63 68 65 66 65 57 55 54 55 57
92 86 87 84 88 90 93 97 97 99 99 97 96 97 96 92 87 85 83 81 81 82 83 79 77 76 79 85 88 84 77 65 78 65 64 62 64 63 57 54 52 50 49
90 87 89 83 90 95 95 92 93 95 96 96 94 96 93 90 86 86 84 82 82 81 84 85 82 79 80 86 87 81 71 45 63 65 61 60 60 58 56 54 53 48 44
93 91 97 99 92 89 92 96 97 97 95 94 92 94 91 89 84 82 83 83 80 83 86 87 86 82 85 89 87 81 64 10 74 66 63 63 61 59 56 53 52 49 43
95 95 94 105 109 107 97 96 100 100 95 94 94 94 91 89 85 82 85 83 84 85 88 91 91 88 88 89 85 82 71 33 58 58 63 63 60 59 57 55 51 46 41
103 102 96 96 99 110 112 103 99 99 99 97 96 94 98 105 101 99 99 86 84 86 88 90 94 91 90 88 84 81 75 61 59 59 57 62 57 56 57 55 51 46 41
111 105 103 101 100 102 103 113 116 113 110 121 114 115 130 110 103 107 83 85 85 83 84 87 92 92 96 93 84 80 69 66 66 59 56 55 54 56 55 52 49 46 42
127 112 108 110 109 104 102 112 117 115 114 108 103 107 102 94 90 93 101 93 87 88 92 88 94 110 107 97 98 101 68 67 65 67 60 52 53 54 53 51 49 48 45
131 123 122 121 114 106 103 101 104 102 106 103 99 104 100 100 102 99 101 111 105 110 99 102 110 87 83 78 73 72 64 61 64 65 59 51 52 55 55 54 52 50 47
142 127 127 132 125 111 106 99 102 103 100 94 97 95 99 91 86 89 89 90 97 92 87 89 87 86 84 86 79 73 71 66 65 68 61 51 50 52 55 54 52 50 48
153 146 139 139 128 119 109 114 112 103 94 98 93 96 100 98 93 96 94 91 85 90 96 92 91 85 83 79 73 69 68 66 63 64 70 59 50 48 50 51 50 49 48
170 159 154 158 148 140 133 132 111 110 116 108 101 95 99 100 102 105 104 97 93 89 86 89 93 93 85 78 73 70 65 67 64 62 64 69 61 50 45 45 45 46 45
175 167 163 165 158 148 129 120 114 112 113 108 108 110 110 105 106 108 98 101 104 102 105 98 97 96 94 89 78 70 67 63 63 60 59 55 63 63 51 45 44 43 43
181 174 164 170 170 155 144 139 125 121 114 107 111 109 111 113 102 95 95 105 107 109 110 106 104 105 98 89 80 69 68 67 63 58 59 59 52 54 60 52 46 42 40
188 184 173 171 168 159 151 144 133 122 113 115 121 116 121 118 120 112 102 111 117 117 117 117 108 102 97 92 92 81 68 64 61 58 58 56 56 52 55 64 58 47 40
190 188 181 172 172 161 163 161 149 130 127 121 120 132 123 129 128 126 135 136 127 128 125 124 111 104 99 98 92 84 73 71 66 58 56 57 53 51 49 47 54 60 51
189 190 187 183 178 173 173 176 165 153 145 134 125 121 138 147 141 141 149 139 146 141 136 132 125 124 119 115 112 105 97 80 70 64 55 53 58 54 54 52 47 44 56
188 193 192 187 182 179 181 173 163 154 155 139 143 140 155 155 156 150 155 162 158 143 140 133 137 135 126 156 196 148 139 121 79 65 64 54 54 58 53 52 51 49 45
190 193 192 186 181 178 174 166 159 151 160 161 161 154 157 162 165 164 163 167 160 159 150 157 161 154 157 163 335 326 326 89 105 86 66 63 59 54 54 51 51 52 52
191 189 188 181 179 174 173 176 176 171 167 165 168 162 161 164 159 164 162 163 163 153 150 164 164 165 179 175 94 1 0 33 164 122 98 75 64 55 50 52 52 52 52
185 183 184 179 176 173 175 175 182 172 168 163 170 167 166 158 155 155 156 159 163 152 147 146 149 171 175 300 54 120 100 95 323 93 107 99 86 66 55 52 54 53 52
180 180 179 178 178 175 177 180 184 176 175 170 170 163 165 160 154 152 155 159 162 158 154 155 150 148 120 76 60 118 153 51 102 98 109 118 101 79 67 59 55 55 54
Height
1534 1533 1532 1532 1532 1532 1533 1533 1534 1534 1534 1534 1534 1534 1535 1535 1535 1535 1535 1536 1536 1536 1536 1536 1536 1536 1535 1535 1535 1535 1535 1535 1535 1534 1534 1534 1534 1534 1533 1533 1533 1534 1532
1535 1534 1533 1533 1533 1533 1533 1534 1534 1534 1534 1535 1535 1535 1536 1536 1536 1536 1536 1537 1537 1537 1537 1537 1537 1536 1536 1536 1536 1536 1536 1536 1535 1535 1535 1535 1535 1534 1534 1534 1534 1533 1533
1535 1535 1534 1533 1534 1534 1534 1534 1534 1534 1535 1535 1536 1536 1536 1537 1537 1537 1537 1537 1537 1537 1537 1538 1537 1537 1537 1537 1537 1536 1536 1536 1536 1536 1537 1537 1536 1535 1535 1535 1534 1534 1533
1536 1536 1535 1534 1534 1535 1535 1535 1535 1535 1536 1536 1537 1537 1537 1537 1538 1538 1538 1538 1538 1538 1538 1538 1538 1538 1538 1538 1537 1537 1537 1537 1537 1537 1538 1538 1537 1536 1535 1535 1535 1534 1533
1537 1537 1536 1535 1535 1535 1535 1536 1536 1536 1536 1537 1537 1537 1538 1538 1538 1539 1539 1539 1539 1539 1539 1539 1539 1539 1539 1539 1538 1538 1538 1538 1538 1539 1539 1538 1537 1536 1536 1535 1535 1534 1533
1538 1538 1537 1536 1536 1536 1536 1537 1537 1537 1537 1537 1538 1538 1538 1539 1539 1539 1539 1539 1539 1539 1539 1540 1540 1540 1540 1539 1539 1539 1539 1539 1540 1540 1539 1539 1538 1537 1536 1536 1535 1534 1534
1539 1539 1538 1537 1537 1537 1537 1537 1538 1538 1538 1538 1538 1539 1539 1539 1540 1540 1540 1540 1540 1540 1540 1540 1540 1541 1540 1540 1540 1540 1540 1540 1541 1540 1540 1540 1539 1538 1537 1536 1536 1535 1534
1539 1539 1539 1538 1538 1538 1538 1538 1539 1539 1539 1539 1540 1540 1540 1540 1540 1541 1541 1541 1541 1541 1541 1541 1541 1541 1541 1541 1541 1541 1541 1541 1542 1542 1541 1540 1539 1538 1538 1537 1536 1535 1534
1540 1540 1540 1540 1540 1539 1539 1539 1540 1540 1540 1540 1541 1541 1541 1541 1541 1542 1542 1542 1542 1542 1542 1542 1543 1542 1542 1542 1542 1542 1542 1542 1543 1543 1543 1541 1540 1539 1538 1537 1537 1536 1535
1541 1541 1541 1541 1542 1542 1541 1541 1541 1541 1541 1541 1542 1542 1543 1543 1543 1543 1543 1543 1543 1543 1544 1544 1544 1544 1544 1544 1544 1544 1544 1544 1544 1544 1543 1542 1541 1540 1539 1538 1537 1536 1535
1542 1543 1542 1543 1543 1543 1543 1542 1542 1542 1543 1543 1544 1544 1544 1546 1546 1545 1545 1545 1545 1545 1545 1545 1545 1545 1545 1545 1545 1545 1545 1546 1545 1545 1544 1543 1542 1541 1540 1539 1537 1536 1535
1543 1544 1544 1544 1544 1544 1544 1544 1545 1545 1544 1545 1546 1546 1546 1547 1547 1547 1546 1546 1546 1547 1547 1547 1547 1547 1548 1548 1547 1547 1548 1548 1547 1546 1545 1544 1543 1542 1540 1539 1538 1537 1536
1544 1544 1545 1545 1545 1545 1545 1546 1546 1546 1546 1546 1547 1547 1547 1548 1548 1548 1549 1549 1549 1549 1549 1549 1549 1550 1550 1549 1549 1549 1549 1549 1548 1548 1546 1545 1544 1543 1542 1540 1539 1538 1536
1544 1545 1545 1545 1546 1546 1546 1547 1547 1547 1547 1548 1548 1548 1549 1549 1549 1550 1550 1550 1551 1551 1550 1551 1551 1551 1551 1551 1551 1551 1550 1550 1550 1549 1547 1546 1545 1544 1543 1542 1540 1539 1537
1545 1545 1545 1546 1547 1547 1547 1547 1548 1548 1548 1549 1548 1549 1550 1551 1551 1551 1551 1551 1552 1552 1552 1552 1552 1552 1552 1552 1552 1552 1552 1551 1551 1550 1549 1548 1547 1546 1544 1543 1541 1540 1538
1545 1546 1546 1546 1547 1548 1548 1548 1549 1549 1549 1550 1550 1550 1551 1552 1552 1552 1553 1553 1553 1553 1553 1553 1553 1553 1553 1553 1553 1553 1553 1553 1552 1551 1551 1550 1548 1547 1546 1544 1543 1541 1539
1545 1546 1546 1547 1547 1548 1549 1549 1549 1550 1550 1551 1551 1552 1552 1553 1553 1553 1554 1554 1554 1554 1555 1555 1555 1555 1554 1555 1555 1555 1554 1554 1553 1553 1552 1551 1550 1549 1547 1546 1544 1542 1540
1544 1545 1546 1546 1547 1548 1549 1549 1550 1550 1551 1551 1552 1552 1553 1554 1554 1554 1554 1555 1555 1556 1556 1556 1556 1556 1556 1556 1556 1556 1556 1555 1555 1554 1554 1553 1552 1551 1549 1547 1546 1544 1542
1544 1545 1546 1546 1547 1548 1549 1549 1550 1551 1551 1551 1552 1553 1554 1554 1555 1555 1555 1556 1556 1556 1557 1557 1557 1557 1557 1557 1557 1557 1557 1557 1556 1556 1555 1554 1553 1552 1551 1549 1547 1545 1543
1542 1544 1545 1546 1547 1548 1549 1550 1550 1551 1551 1552 1552 1553 1554 1555 1555 1556 1556 1557 1557 1557 1558 1558 1558 1558 1558 1559 1559 1559 1559 1558 1558 1557 1557 1556 1555 1554 1553 1551 1550 1547 1545
1541 1542 1544 1545 1546 1547 1548 1549 1550 1551 1552 1552 1553 1553 1554 1555 1556 1556 1557 1557 1558 1558 1559 1559 1559 1559 1560 1560 1561 1561 1560 1560 1559 1558 1558 1558 1557 1555 1554 1553 1551 1549 1548
1539 1541 1543 1544 1545 1546 1548 1549 1550 1551 1552 1552 1552 1553 1554 1555 1556 1557 1557 1558 1558 1558 1559 1560 1560 1560 1560 1560 1561 1562 1562 1563 1561 1560 1559 1559 1558 1557 1556 1555 1553 1551 1549
1536 1539 1541 1543 1544 1545 1547 1548 1549 1550 1551 1552 1553 1553 1554 1555 1555 1556 1557 1558 1558 1559 1560 1560 1560 1560 1561 1561 1561 1562 1562 1562 1562 1562 1561 1560 1559 1558 1558 1557 1555 1553 1552
1534 1536 1539 1541 1543 1544 1546 1547 1549 1549 1551 1551 1552 1553 1553 1554 1555 1556 1557 1558 1558 1559 1559 1560 1560 1561 1561 1561 1561 1561 1562 1562 1562 1563 1563 1562 1561 1560 1559 1558 1557 1556 1554
1531 1534 1536 1539 1541 1542 1544 1546 1547 1549 1550 1551 1552 1552 1553 1554 1555 1555 1556 1557 1558 1559 1559 1560 1560 1561 1561 1561 1562 1562 1561 1561 1562 1562 1563 1564 1563 1562 1561 1560 1559 1557 1556
1528 1531 1533 1536 1539 1541 1543 1545 1546 1548 1549 1550 1551 1552 1553 1554 1554 1555 1556 1557 1558 1559 1559 1560 1560 1561 1561 1561 1562 1562 1562 1563 1563 1563 1563 1563 1564 1564 1562 1561 1560 1559 1558